| time (UTC) | temp F | wind direction | speed MPH | gust MPH | rain 1hr in | rain 24hr in | rain mn in | humidity % | barometer mb |
| 20260507165831 | 60 | 342 | 2.0 | 6.0 | 0.00 | 0.00 | 0.00 | 51 | 1014.3 |
| 20260507165323 | 60 | 17 | 4.0 | 6.0 | 0.00 | 0.00 | 0.00 | 53 | 1014.3 |
| 20260507164816 | 60 | 336 | 2.0 | 4.0 | 0.00 | 0.00 | 0.00 | 55 | 1014.3 |
| 20260507163827 | 59 | 5 | 0.0 | 1.0 | 0.00 | 0.00 | 0.00 | 53 | 1014.3 |
| 20260507163320 | 59 | 9 | 0.0 | 3.0 | 0.00 | 0.00 | 0.00 | 56 | 1014.3 |
| 20260507162817 | 58 | 9 | 2.0 | 6.0 | 0.00 | 0.00 | 0.00 | 51 | 1014.3 |
| 20260507162350 | 59 | 338 | 3.0 | 6.0 | 0.00 | 0.00 | 0.00 | 53 | 1014.3 |
| 20260507161822 | 58 | 9 | 2.0 | 6.0 | 0.00 | 0.00 | 0.00 | 54 | 1014.3 |
| 20260507161314 | 58 | 20 | 3.0 | 7.0 | 0.00 | 0.00 | 0.00 | 55 | 1014.4 |
| 20260507160907 | 58 | 77 | 1.0 | 8.0 | 0.00 | 0.00 | 0.00 | 53 | 1014.3 |
| 20260507160315 | 58 | 55 | 3.0 | 6.0 | 0.00 | 0.00 | 0.00 | 53 | 1014.3 |
| 20260507155828 | 58 | 24 | 3.0 | 8.0 | 0.00 | 0.00 | 0.00 | 54 | 1014.3 |
| 20260507155326 | 59 | 5 | 4.0 | 8.0 | 0.00 | 0.00 | 0.00 | 53 | 1014.4 |
| 20260507154818 | 59 | 22 | 3.0 | 5.0 | 0.00 | 0.00 | 0.00 | 54 | 1014.5 |
| 20260507154330 | 58 | 26 | 2.0 | 5.0 | 0.00 | 0.00 | 0.00 | 54 | 1014.5 |
| 20260507153827 | 58 | 5 | 3.0 | 5.0 | 0.00 | 0.00 | 0.00 | 54 | 1014.4 |
| 20260507153338 | 57 | 34 | 2.0 | 4.0 | 0.00 | 0.00 | 0.00 | 55 | 1014.4 |
| 20260507152830 | 57 | 28 | 2.0 | 4.0 | 0.00 | 0.00 | 0.00 | 56 | 1014.4 |
| 20260507152322 | 56 | 28 | 2.0 | 4.0 | 0.00 | 0.00 | 0.00 | 61 | 1014.4 |
| 20260507151814 | 56 | 85 | 1.0 | 2.0 | 0.00 | 0.00 | 0.00 | 62 | 1014.3 |
| 20260507151323 | 56 | 85 | 1.0 | 3.0 | 0.00 | 0.00 | 0.00 | 63 | 1014.3 |
| 20260507150814 | 56 | 85 | 2.0 | 3.0 | 0.00 | 0.00 | 0.00 | 60 | 1014.3 |
| 20260507150324 | 56 | 85 | 0.0 | 2.0 | 0.00 | 0.00 | 0.00 | 60 | 1014.3 |
| 20260507145836 | 55 | 85 | 0.0 | 2.0 | 0.00 | 0.00 | 0.00 | 63 | 1014.1 |
| 20260507145327 | 55 | 85 | 0.0 | 3.0 | 0.00 | 0.00 | 0.00 | 63 | 1014.0 |
| 20260507144816 | 55 | 85 | 2.0 | 3.0 | 0.00 | 0.00 | 0.00 | 57 | 1014.1 |
| 20260507144328 | 56 | 85 | 1.0 | 3.0 | 0.00 | 0.00 | 0.00 | 57 | 1014.0 |
| 20260507143823 | 56 | 85 | 2.0 | 3.0 | 0.00 | 0.00 | 0.00 | 56 | 1014.0 |
| 20260507143314 | 56 | 85 | 1.0 | 3.0 | 0.00 | 0.00 | 0.00 | 56 | 1013.8 |
| 20260507142827 | 55 | 85 | 2.0 | 3.0 | 0.00 | 0.00 | 0.00 | 59 | 1013.9 |
| 20260507142319 | 55 | 85 | 0.0 | 2.0 | 0.00 | 0.00 | 0.00 | 58 | 1013.7 |
| 20260507141831 | 55 | 85 | 0.0 | 3.0 | 0.00 | 0.00 | 0.00 | 58 | 1013.7 |
| 20260507141324 | 55 | 85 | 2.0 | 3.0 | 0.00 | 0.00 | 0.00 | 58 | 1013.7 |
| 20260507140817 | 55 | 85 | 0.0 | 3.0 | 0.00 | 0.00 | 0.00 | 58 | 1013.7 |
| 20260507140344 | 54 | 85 | 1.0 | 3.0 | 0.00 | 0.00 | 0.00 | 57 | 1013.7 |
| 20260507135835 | 54 | 74 | 0.0 | 3.0 | 0.00 | 0.00 | 0.00 | 57 | 1013.6 |
| 20260507135351 | 54 | 74 | 1.0 | 3.0 | 0.00 | 0.00 | 0.00 | 58 | 1013.6 |
| 20260507134819 | 54 | 74 | 2.0 | 4.0 | 0.00 | 0.00 | 0.00 | 58 | 1013.5 |
| 20260507134335 | 54 | 132 | 2.0 | 4.0 | 0.00 | 0.00 | 0.00 | 56 | 1013.4 |
| 20260507133826 | 54 | 38 | 2.0 | 5.0 | 0.00 | 0.00 | 0.00 | 55 | 1013.4 |
| 20260507133318 | 54 | 50 | 2.0 | 3.0 | 0.00 | 0.00 | 0.00 | 55 | 1013.5 |
| 20260507132849 | 54 | 76 | 2.0 | 3.0 | 0.00 | 0.00 | 0.00 | 55 | 1013.4 |
| 20260507132341 | 54 | 147 | 0.0 | 3.0 | 0.00 | 0.00 | 0.00 | 55 | 1013.4 |
| 20260507131832 | 54 | 158 | 1.0 | 4.0 | 0.00 | 0.00 | 0.00 | 53 | 1013.3 |
| 20260507131323 | 54 | 189 | 2.0 | 4.0 | 0.00 | 0.00 | 0.00 | 52 | 1013.3 |
| 20260507130815 | 53 | 165 | 2.0 | 5.0 | 0.00 | 0.00 | 0.00 | 57 | 1013.3 |
| 20260507125826 | 53 | 145 | 0.0 | 3.0 | 0.00 | 0.00 | 0.00 | 55 | 1013.3 |
| 20260507125318 | 53 | 145 | 1.0 | 4.0 | 0.00 | 0.00 | 0.00 | 54 | 1013.3 |
| 20260507124910 | 53 | 145 | 2.0 | 8.0 | 0.00 | 0.00 | 0.00 | 55 | 1013.4 |
| 20260507124318 | 53 | 144 | 5.0 | 8.0 | 0.00 | 0.00 | 0.00 | 56 | 1013.3 |
| 20260507123815 | 53 | 96 | 3.0 | 4.0 | 0.00 | 0.00 | 0.00 | 54 | 1013.3 |
| 20260507123327 | 53 | 173 | 1.0 | 6.0 | 0.00 | 0.00 | 0.00 | 52 | 1013.3 |
| 20260507122900 | 53 | 223 | 4.0 | 7.0 | 0.00 | 0.00 | 0.00 | 52 | 1013.2 |
| 20260507122352 | 54 | 216 | 5.0 | 7.0 | 0.00 | 0.00 | 0.00 | 53 | 1013.2 |
| 20260507121824 | 54 | 266 | 1.0 | 5.0 | 0.00 | 0.00 | 0.00 | 52 | 1013.1 |
| 20260507121316 | 54 | 70 | 3.0 | 4.0 | 0.00 | 0.00 | 0.00 | 53 | 1013.1 |
| 20260507120848 | 54 | 171 | 4.0 | 5.0 | 0.00 | 0.00 | 0.00 | 53 | 1013.0 |
| 20260507120314 | 54 | 98 | 3.0 | 4.0 | 0.00 | 0.00 | 0.00 | 51 | 1013.0 |
| 20260507115826 | 54 | 183 | 0.0 | 5.0 | 0.00 | 0.00 | 0.00 | 51 | 1013.1 |
| 20260507115338 | 54 | 162 | 3.0 | 9.0 | 0.00 | 0.00 | 0.00 | 51 | 1012.9 |
| 20260507114829 | 55 | 189 | 6.0 | 9.0 | 0.00 | 0.00 | 0.00 | 51 | 1013.0 |
| 20260507114322 | 55 | 19 | 1.0 | 4.0 | 0.00 | 0.00 | 0.00 | 52 | 1013.1 |
| 20260507113333 | 55 | 47 | 1.0 | 3.0 | 0.00 | 0.00 | 0.00 | 52 | 1013.0 |
| 20260507112826 | 55 | 47 | 1.0 | 4.0 | 0.00 | 0.00 | 0.00 | 51 | 1012.9 |
| 20260507112317 | 56 | 19 | 3.0 | 4.0 | 0.00 | 0.00 | 0.00 | 51 | 1012.9 |
| 20260507111829 | 56 | 267 | 1.0 | 3.0 | 0.00 | 0.00 | 0.00 | 50 | 1012.8 |
| 20260507111320 | 56 | 26 | 2.0 | 3.0 | 0.00 | 0.00 | 0.00 | 49 | 1012.8 |
| 20260507110831 | 56 | 153 | 0.0 | 10.0 | 0.00 | 0.00 | 0.00 | 49 | 1012.8 |
| 20260507105823 | 56 | 167 | 3.0 | 5.0 | 0.00 | 0.00 | 0.00 | 49 | 1012.7 |
| 20260507105317 | 56 | 138 | 3.0 | 6.0 | 0.00 | 0.00 | 0.00 | 48 | 1012.8 |
| 20260507104831 | 56 | 164 | 5.0 | 6.0 | 0.00 | 0.00 | 0.00 | 49 | 1012.7 |
| 20260507104327 | 56 | 189 | 5.0 | 6.0 | 0.00 | 0.00 | 0.00 | 48 | 1012.8 |
| 20260507103819 | 56 | 155 | 5.0 | 6.0 | 0.00 | 0.00 | 0.00 | 50 | 1012.8 |
| 20260507103336 | 57 | 204 | 0.0 | 5.0 | 0.00 | 0.00 | 0.00 | 49 | 1012.9 |
| 20260507102323 | 57 | 149 | 3.0 | 6.0 | 0.00 | 0.00 | 0.00 | 51 | 1012.8 |
| 20260507101815 | 57 | 167 | 3.0 | 5.0 | 0.00 | 0.00 | 0.00 | 50 | 1012.8 |
| 20260507100828 | 58 | 126 | 2.0 | 7.0 | 0.00 | 0.00 | 0.00 | 48 | 1012.9 |
| 20260507100315 | 58 | 130 | 2.0 | 4.0 | 0.00 | 0.00 | 0.00 | 51 | 1012.9 |
| 20260507095827 | 58 | 97 | 2.0 | 4.0 | 0.00 | 0.00 | 0.00 | 50 | 1012.9 |
| 20260507095320 | 58 | 259 | 0.0 | 4.0 | 0.00 | 0.00 | 0.00 | 48 | 1012.8 |
| 20260507094814 | 58 | 166 | 3.0 | 4.0 | 0.00 | 0.00 | 0.00 | 48 | 1012.7 |
| 20260507094326 | 58 | 207 | 1.0 | 6.0 | 0.00 | 0.00 | 0.00 | 46 | 1012.8 |
| 20260507093819 | 58 | 206 | 2.0 | 9.0 | 0.00 | 0.00 | 0.00 | 47 | 1012.7 |
| 20260507093329 | 58 | 190 | 6.0 | 10.0 | 0.00 | 0.00 | 0.00 | 47 | 1012.7 |
| 20260507092826 | 59 | 219 | 5.0 | 7.0 | 0.00 | 0.00 | 0.00 | 47 | 1012.8 |
| 20260507092318 | 59 | 242 | 2.0 | 3.0 | 0.00 | 0.00 | 0.00 | 48 | 1012.5 |
| 20260507091827 | 59 | 242 | 0.0 | 2.0 | 0.00 | 0.00 | 0.00 | 48 | 1012.7 |
| 20260507091318 | 59 | 242 | 2.0 | 3.0 | 0.00 | 0.00 | 0.00 | 47 | 1012.7 |
| 20260507090829 | 60 | 215 | 0.0 | 4.0 | 0.00 | 0.00 | 0.00 | 46 | 1012.7 |
| 20260507090321 | 60 | 215 | 0.0 | 8.0 | 0.00 | 0.00 | 0.00 | 46 | 1012.6 |
| 20260507085833 | 60 | 173 | 5.0 | 14.0 | 0.00 | 0.00 | 0.00 | 49 | 1012.6 |
| 20260507085320 | 60 | 227 | 9.0 | 14.0 | 0.00 | 0.00 | 0.00 | 44 | 1012.6 |
| 20260507084854 | 60 | 212 | 10.0 | 15.0 | 0.00 | 0.00 | 0.00 | 44 | 1012.6 |
| 20260507084330 | 59 | 210 | 10.0 | 14.0 | 0.00 | 0.00 | 0.00 | 45 | 1012.6 |
| 20260507083824 | 60 | 235 | 9.0 | 15.0 | 0.00 | 0.00 | 0.00 | 46 | 1012.6 |
| 20260507083317 | 60 | 221 | 11.0 | 15.0 | 0.00 | 0.00 | 0.00 | 45 | 1012.6 |
| 20260507082827 | 60 | 198 | 10.0 | 11.0 | 0.00 | 0.00 | 0.00 | 46 | 1012.6 |
| 20260507082319 | 60 | 204 | 5.0 | 8.0 | 0.00 | 0.00 | 0.00 | 45 | 1012.7 |
| 20260507081831 | 61 | 173 | 5.0 | 8.0 | 0.00 | 0.00 | 0.00 | 45 | 1012.7 |
| 20260507080823 | 61 | 269 | 1.0 | 6.0 | 0.00 | 0.00 | 0.00 | 46 | 1012.7 |
| 20260507080331 | 61 | 199 | 1.0 | 12.0 | 0.00 | 0.00 | 0.00 | 46 | 1012.6 |
| 20260507075824 | 61 | 213 | 7.0 | 14.0 | 0.00 | 0.00 | 0.00 | 45 | 1012.5 |
| 20260507075320 | 61 | 202 | 11.0 | 14.0 | 0.00 | 0.00 | 0.00 | 45 | 1012.4 |
| 20260507074831 | 61 | 200 | 9.0 | 12.0 | 0.00 | 0.00 | 0.00 | 46 | 1012.5 |
| 20260507074323 | 62 | 76 | 2.0 | 9.0 | 0.00 | 0.00 | 0.00 | 47 | 1012.6 |
| 20260507073315 | 63 | 134 | 9.0 | 13.0 | 0.00 | 0.00 | 0.00 | 47 | 1012.5 |
| 20260507072828 | 63 | 135 | 1.0 | 5.0 | 0.00 | 0.00 | 0.00 | 43 | 1012.7 |
| 20260507072340 | 63 | 351 | 3.0 | 5.0 | 0.00 | 0.00 | 0.00 | 44 | 1012.8 |
| 20260507071830 | 63 | 156 | 2.0 | 10.0 | 0.00 | 0.00 | 0.00 | 38 | 1012.8 |
| 20260507071324 | 62 | 213 | 4.0 | 10.0 | 0.00 | 0.00 | 0.00 | 42 | 1012.8 |
| 20260507070836 | 62 | 153 | 5.0 | 8.0 | 0.00 | 0.00 | 0.00 | 49 | 1013.0 |
| 20260507070326 | 62 | 125 | 6.0 | 8.0 | 0.00 | 0.00 | 0.00 | 47 | 1013.0 |
| 20260507065822 | 62 | 135 | 3.0 | 4.0 | 0.00 | 0.00 | 0.00 | 47 | 1013.0 |
| 20260507065335 | 62 | 128 | 1.0 | 4.0 | 0.00 | 0.00 | 0.00 | 47 | 1013.0 |
| 20260507064327 | 63 | 180 | 4.0 | 10.0 | 0.00 | 0.00 | 0.00 | 47 | 1012.8 |
| 20260507063819 | 62 | 159 | 7.0 | 10.0 | 0.00 | 0.00 | 0.00 | 47 | 1012.5 |
| 20260507063351 | 62 | 160 | 7.0 | 10.0 | 0.00 | 0.00 | 0.00 | 48 | 1012.5 |
| 20260507062820 | 62 | 146 | 8.0 | 10.0 | 0.00 | 0.00 | 0.00 | 48 | 1012.5 |
| 20260507062331 | 63 | 185 | 6.0 | 8.0 | 0.00 | 0.00 | 0.00 | 48 | 1012.5 |
| 20260507061843 | 63 | 196 | 5.0 | 6.0 | 0.00 | 0.00 | 0.00 | 47 | 1012.5 |
| 20260507061333 | 64 | 161 | 4.0 | 6.0 | 0.00 | 0.00 | 0.00 | 46 | 1012.6 |
| 20260507060825 | 64 | 313 | 1.0 | 9.0 | 0.00 | 0.00 | 0.00 | 45 | 1012.5 |
| 20260507060314 | 65 | 122 | 3.0 | 9.0 | 0.00 | 0.00 | 0.00 | 43 | 1012.6 |
| 20260507055832 | 65 | 142 | 5.0 | 8.0 | 0.00 | 0.00 | 0.00 | 42 | 1012.6 |
| 20260507055345 | 65 | 134 | 4.0 | 8.0 | 0.00 | 0.00 | 0.00 | 40 | 1012.7 |
| 20260507054816 | 65 | 150 | 6.0 | 10.0 | 0.00 | 0.00 | 0.00 | 43 | 1012.7 |
| 20260507054328 | 65 | 149 | 8.0 | 16.0 | 0.00 | 0.00 | 0.00 | 44 | 1012.8 |
| 20260507053820 | 65 | 153 | 10.0 | 14.0 | 0.00 | 0.00 | 0.00 | 44 | 1012.7 |
| 20260507053353 | 65 | 157 | 9.0 | 14.0 | 0.00 | 0.00 | 0.00 | 43 | 1012.8 |
| 20260507052820 | 65 | 152 | 7.0 | 12.0 | 0.00 | 0.00 | 0.00 | 41 | 1012.8 |
| 20260507052352 | 65 | 109 | 7.0 | 14.0 | 0.00 | 0.00 | 0.00 | 37 | 1012.6 |
| 20260507051843 | 65 | 164 | 7.0 | 11.0 | 0.00 | 0.00 | 0.00 | 39 | 1012.7 |
| 20260507051314 | 64 | 184 | 8.0 | 10.0 | 0.00 | 0.00 | 0.00 | 43 | 1012.7 |
| 20260507050827 | 64 | 192 | 5.0 | 15.0 | 0.00 | 0.00 | 0.00 | 42 | 1012.8 |
| 20260507050343 | 64 | 201 | 6.0 | 15.0 | 0.00 | 0.00 | 0.00 | 44 | 1012.8 |
| 20260507045815 | 63 | 170 | 2.0 | 10.0 | 0.00 | 0.00 | 0.00 | 39 | 1012.8 |
| 20260507045326 | 64 | 205 | 7.0 | 10.0 | 0.00 | 0.00 | 0.00 | 46 | 1013.0 |
| 20260507044818 | 64 | 348 | 1.0 | 4.0 | 0.00 | 0.00 | 0.00 | 47 | 1013.1 |
| 20260507044330 | 64 | 288 | 3.0 | 7.0 | 0.00 | 0.00 | 0.00 | 45 | 1013.2 |
| 20260507043822 | 64 | 160 | 4.0 | 10.0 | 0.00 | 0.00 | 0.00 | 46 | 1013.1 |
| 20260507042815 | 64 | 123 | 5.0 | 8.0 | 0.00 | 0.00 | 0.00 | 48 | 1013.2 |
| 20260507042347 | 64 | 184 | 4.0 | 11.0 | 0.00 | 0.00 | 0.00 | 47 | 1013.3 |
| 20260507041820 | 65 | 138 | 7.0 | 13.0 | 0.00 | 0.00 | 0.00 | 45 | 1013.2 |
| 20260507041353 | 65 | 146 | 10.0 | 14.0 | 0.00 | 0.00 | 0.00 | 46 | 1013.2 |
| 20260507040824 | 65 | 136 | 12.0 | 15.0 | 0.00 | 0.00 | 0.00 | 46 | 1013.1 |
| 20260507040315 | 65 | 154 | 11.0 | 15.0 | 0.00 | 0.00 | 0.00 | 46 | 1013.0 |
| 20260507035827 | 65 | 123 | 9.0 | 14.0 | 0.00 | 0.00 | 0.00 | 46 | 1013.0 |
| 20260507035319 | 65 | 159 | 12.0 | 17.0 | 0.00 | 0.00 | 0.00 | 46 | 1013.0 |
| 20260507034832 | 65 | 163 | 13.0 | 18.0 | 0.00 | 0.00 | 0.00 | 46 | 1012.9 |
| 20260507034324 | 65 | 134 | 13.0 | 18.0 | 0.00 | 0.00 | 0.00 | 46 | 1012.8 |
| 20260507033814 | 65 | 166 | 14.0 | 17.0 | 0.00 | 0.00 | 0.00 | 46 | 1012.7 |
| 20260507033328 | 66 | 203 | 11.0 | 21.0 | 0.00 | 0.00 | 0.00 | 45 | 1012.7 |
| 20260507032821 | 66 | 154 | 13.0 | 21.0 | 0.00 | 0.00 | 0.00 | 44 | 1012.6 |
| 20260507032353 | 67 | 142 | 10.0 | 15.0 | 0.00 | 0.00 | 0.00 | 44 | 1012.6 |
| 20260507031823 | 67 | 152 | 8.0 | 12.0 | 0.00 | 0.00 | 0.00 | 44 | 1012.5 |
| 20260507031319 | 67 | 136 | 5.0 | 18.0 | 0.00 | 0.00 | 0.00 | 43 | 1012.5 |
| 20260507030832 | 66 | 157 | 7.0 | 18.0 | 0.00 | 0.00 | 0.00 | 45 | 1012.6 |
| 20260507030324 | 66 | 116 | 10.0 | 16.0 | 0.00 | 0.00 | 0.00 | 45 | 1012.6 |
| 20260507025816 | 66 | 188 | 9.0 | 14.0 | 0.00 | 0.00 | 0.00 | 44 | 1012.5 |
| 20260507025329 | 66 | 150 | 7.0 | 14.0 | 0.00 | 0.00 | 0.00 | 44 | 1012.6 |
| 20260507024822 | 67 | 159 | 9.0 | 15.0 | 0.00 | 0.00 | 0.00 | 44 | 1012.5 |
| 20260507024315 | 67 | 137 | 9.0 | 17.0 | 0.00 | 0.00 | 0.00 | 44 | 1012.6 |
| 20260507023829 | 66 | 40 | 6.0 | 17.0 | 0.00 | 0.00 | 0.00 | 44 | 1012.5 |
| 20260507023325 | 66 | 148 | 12.0 | 18.0 | 0.00 | 0.00 | 0.00 | 45 | 1012.4 |
| 20260507022818 | 67 | 133 | 12.0 | 16.0 | 0.00 | 0.00 | 0.00 | 44 | 1012.4 |
| 20260507022332 | 66 | 148 | 13.0 | 18.0 | 0.00 | 0.00 | 0.00 | 45 | 1012.4 |
| 20260507021825 | 67 | 132 | 12.0 | 22.0 | 0.00 | 0.00 | 0.00 | 44 | 1012.4 |
| 20260507021318 | 67 | 171 | 14.0 | 22.0 | 0.00 | 0.00 | 0.00 | 44 | 1012.3 |
| 20260507020830 | 67 | 171 | 17.0 | 21.0 | 0.00 | 0.00 | 0.00 | 44 | 1012.2 |
| 20260507020340 | 67 | 140 | 14.0 | 20.0 | 0.00 | 0.00 | 0.00 | 44 | 1012.2 |
| 20260507015832 | 67 | 183 | 14.0 | 20.0 | 0.00 | 0.00 | 0.00 | 44 | 1012.2 |
| 20260507015324 | 67 | 165 | 16.0 | 20.0 | 0.00 | 0.00 | 0.00 | 43 | 1012.1 |
| 20260507014841 | 67 | 169 | 13.0 | 22.0 | 0.00 | 0.00 | 0.00 | 44 | 1012.1 |
| 20260507014332 | 67 | 152 | 15.0 | 22.0 | 0.00 | 0.00 | 0.00 | 43 | 1012.2 |
| 20260507013823 | 67 | 157 | 15.0 | 19.0 | 0.00 | 0.00 | 0.00 | 43 | 1012.3 |
| 20260507013315 | 67 | 174 | 13.0 | 23.0 | 0.00 | 0.00 | 0.00 | 43 | 1012.2 |
| 20260507012829 | 68 | 143 | 13.0 | 21.0 | 0.00 | 0.00 | 0.00 | 43 | 1012.3 |
| 20260507012320 | 68 | 162 | 13.0 | 21.0 | 0.00 | 0.00 | 0.00 | 42 | 1012.3 |
| 20260507011813 | 68 | 198 | 15.0 | 21.0 | 0.00 | 0.00 | 0.00 | 42 | 1012.3 |
| 20260507011325 | 68 | 194 | 14.0 | 20.0 | 0.00 | 0.00 | 0.00 | 42 | 1012.3 |
| 20260507010821 | 68 | 205 | 13.0 | 22.0 | 0.00 | 0.00 | 0.00 | 42 | 1012.2 |
| 20260507010313 | 68 | 174 | 15.0 | 28.0 | 0.00 | 0.00 | 0.00 | 43 | 1012.2 |
| 20260507005825 | 69 | 151 | 13.0 | 28.0 | 0.00 | 0.00 | 0.00 | 42 | 1012.1 |
| 20260507005319 | 69 | 183 | 15.0 | 30.0 | 0.00 | 0.00 | 0.00 | 41 | 1011.9 |
| 20260507004851 | 69 | 157 | 15.0 | 27.0 | 0.00 | 0.00 | 0.00 | 42 | 1012.1 |
| 20260507004321 | 69 | 172 | 14.0 | 22.0 | 0.00 | 0.00 | 0.00 | 42 | 1012.2 |
| 20260507003813 | 68 | 189 | 14.0 | 28.0 | 0.00 | 0.00 | 0.00 | 42 | 1012.0 |
| 20260507003324 | 68 | 180 | 14.0 | 28.0 | 0.00 | 0.00 | 0.00 | 43 | 1012.0 |
| 20260507002835 | 68 | 157 | 13.0 | 22.0 | 0.00 | 0.00 | 0.00 | 42 | 1012.0 |
| 20260507002326 | 69 | 215 | 13.0 | 23.0 | 0.00 | 0.00 | 0.00 | 41 | 1012.1 |
| 20260507001823 | 69 | 196 | 15.0 | 24.0 | 0.00 | 0.00 | 0.00 | 42 | 1012.0 |
| 20260507001354 | 69 | 180 | 15.0 | 26.0 | 0.00 | 0.00 | 0.00 | 41 | 1012.1 |
| 20260507000824 | 69 | 182 | 16.0 | 26.0 | 0.00 | 0.00 | 0.00 | 42 | 1012.1 |
| 20260507000314 | 69 | 192 | 12.0 | 23.0 | 0.00 | 0.00 | 0.00 | 40 | 1012.1 |
| 20260506235825 | 69 | 199 | 12.0 | 23.0 | 0.00 | 0.00 | 0.00 | 40 | 1012.1 |
| 20260506235318 | 69 | 182 | 10.0 | 22.0 | 0.00 | 0.00 | 0.00 | 43 | 1011.9 |
| 20260506234830 | 69 | 208 | 14.0 | 26.0 | 0.00 | 0.00 | 0.00 | 40 | 1011.9 |
| 20260506233822 | 70 | 198 | 12.0 | 23.0 | 0.00 | 0.00 | 0.00 | 40 | 1012.0 |
| 20260506233314 | 70 | 136 | 12.0 | 21.0 | 0.00 | 0.00 | 0.00 | 44 | 1012.1 |
| 20260506232831 | 69 | 171 | 11.0 | 21.0 | 0.00 | 0.00 | 0.00 | 41 | 1012.1 |
| 20260506232322 | 69 | 163 | 14.0 | 21.0 | 0.00 | 0.00 | 0.00 | 40 | 1012.1 |
| 20260506231832 | 70 | 189 | 12.0 | 20.0 | 0.00 | 0.00 | 0.00 | 40 | 1012.1 |
| 20260506231324 | 70 | 190 | 11.0 | 21.0 | 0.00 | 0.00 | 0.00 | 40 | 1012.1 |
| 20260506230856 | 69 | 158 | 12.0 | 25.0 | 0.00 | 0.00 | 0.00 | 41 | 1012.2 |
| 20260506230814 | 69 | 158 | 12.0 | 25.0 | 0.00 | 0.00 | 0.00 | 41 | 1012.2 |
| 20260506230325 | 69 | 153 | 15.0 | 25.0 | 0.00 | 0.00 | 0.00 | 40 | 1012.3 |
| 20260506225839 | 68 | 155 | 10.0 | 21.0 | 0.00 | 0.00 | 0.00 | 40 | 1012.4 |
| 20260506225331 | 68 | 228 | 13.0 | 21.0 | 0.00 | 0.00 | 0.00 | 39 | 1012.5 |
| 20260506224824 | 68 | 190 | 12.0 | 21.0 | 0.00 | 0.00 | 0.00 | 39 | 1012.5 |
| 20260506224317 | 68 | 190 | 11.0 | 20.0 | 0.00 | 0.00 | 0.00 | 40 | 1012.4 |
| 20260506223827 | 68 | 210 | 15.0 | 22.0 | 0.00 | 0.00 | 0.00 | 40 | 1012.2 |
| 20260506223324 | 69 | 155 | 14.0 | 21.0 | 0.00 | 0.00 | 0.00 | 38 | 1012.4 |
| 20260506222816 | 69 | 171 | 11.0 | 21.0 | 0.00 | 0.00 | 0.00 | 39 | 1012.6 |
| 20260506222330 | 69 | 144 | 12.0 | 21.0 | 0.00 | 0.00 | 0.00 | 37 | 1012.6 |
| 20260506221822 | 69 | 141 | 12.0 | 25.0 | 0.00 | 0.00 | 0.00 | 39 | 1012.8 |
| 20260506221332 | 69 | 164 | 15.0 | 26.0 | 0.00 | 0.00 | 0.00 | 37 | 1012.8 |
| 20260506220824 | 69 | 176 | 13.0 | 28.0 | 0.00 | 0.00 | 0.00 | 38 | 1012.8 |
| 20260506220331 | 69 | 162 | 17.0 | 28.0 | 0.00 | 0.00 | 0.00 | 37 | 1012.8 |
| 20260506215822 | 69 | 157 | 14.0 | 23.0 | 0.00 | 0.00 | 0.00 | 37 | 1012.8 |
| 20260506215319 | 69 | 175 | 15.0 | 23.0 | 0.00 | 0.00 | 0.00 | 37 | 1013.0 |
| 20260506214830 | 69 | 192 | 16.0 | 29.0 | 0.00 | 0.00 | 0.00 | 38 | 1013.0 |
| 20260506213842 | 68 | 146 | 18.0 | 27.0 | 0.00 | 0.00 | 0.00 | 39 | 1013.0 |
| 20260506213313 | 68 | 202 | 15.0 | 25.0 | 0.00 | 0.00 | 0.00 | 38 | 1013.1 |
| 20260506212845 | 69 | 194 | 15.0 | 28.0 | 0.00 | 0.00 | 0.00 | 37 | 1013.2 |
| 20260506212316 | 68 | 182 | 16.0 | 28.0 | 0.00 | 0.00 | 0.00 | 39 | 1013.4 |
| 20260506211847 | 68 | 206 | 16.0 | 27.0 | 0.00 | 0.00 | 0.00 | 37 | 1013.5 |
| 20260506211315 | 68 | 177 | 17.0 | 27.0 | 0.00 | 0.00 | 0.00 | 37 | 1013.3 |
| 20260506210828 | 68 | 207 | 18.0 | 33.0 | 0.00 | 0.00 | 0.00 | 38 | 1013.2 |
| 20260506210319 | 68 | 146 | 19.0 | 33.0 | 0.00 | 0.00 | 0.00 | 39 | 1013.3 |
| 20260506205831 | 68 | 132 | 19.0 | 29.0 | 0.00 | 0.00 | 0.00 | 36 | 1013.3 |
| 20260506205321 | 68 | 195 | 16.0 | 24.0 | 0.00 | 0.00 | 0.00 | 37 | 1013.8 |
| 20260506204813 | 68 | 174 | 14.0 | 25.0 | 0.00 | 0.00 | 0.00 | 37 | 1013.6 |
| 20260506204324 | 67 | 169 | 17.0 | 26.0 | 0.00 | 0.00 | 0.00 | 38 | 1013.7 |
| 20260506203820 | 67 | 148 | 17.0 | 26.0 | 0.00 | 0.00 | 0.00 | 38 | 1013.7 |
| 20260506203333 | 67 | 155 | 17.0 | 27.0 | 0.00 | 0.00 | 0.00 | 38 | 1013.7 |
| 20260506202829 | 67 | 166 | 15.0 | 24.0 | 0.00 | 0.00 | 0.00 | 39 | 1013.7 |
| 20260506202321 | 67 | 151 | 20.0 | 28.0 | 0.00 | 0.00 | 0.00 | 37 | 1013.8 |
| 20260506201834 | 66 | 188 | 14.0 | 28.0 | 0.00 | 0.00 | 0.00 | 39 | 1013.8 |
| 20260506201325 | 65 | 198 | 17.0 | 28.0 | 0.00 | 0.00 | 0.00 | 40 | 1013.8 |
| 20260506200818 | 65 | 177 | 18.0 | 28.0 | 0.00 | 0.00 | 0.00 | 39 | 1013.7 |
| 20260506200346 | 65 | 146 | 16.0 | 31.0 | 0.00 | 0.00 | 0.00 | 39 | 1013.8 |
| 20260506195818 | 65 | 151 | 15.0 | 26.0 | 0.00 | 0.00 | 0.00 | 39 | 1013.9 |
| 20260506195316 | 65 | 153 | 15.0 | 25.0 | 0.00 | 0.00 | 0.00 | 40 | 1014.0 |
| 20260506194828 | 65 | 151 | 17.0 | 27.0 | 0.00 | 0.00 | 0.00 | 40 | 1013.9 |
| 20260506194342 | 65 | 199 | 17.0 | 27.0 | 0.00 | 0.00 | 0.00 | 39 | 1014.0 |
| 20260506193813 | 65 | 216 | 14.0 | 26.0 | 0.00 | 0.00 | 0.00 | 40 | 1014.0 |
| 20260506193324 | 65 | 155 | 18.0 | 32.0 | 0.00 | 0.00 | 0.00 | 38 | 1014.1 |
| 20260506192817 | 64 | 193 | 16.0 | 32.0 | 0.00 | 0.00 | 0.00 | 40 | 1014.2 |
| 20260506192345 | 64 | 178 | 18.0 | 27.0 | 0.00 | 0.00 | 0.00 | 40 | 1014.1 |
| 20260506191816 | 64 | 155 | 18.0 | 28.0 | 0.00 | 0.00 | 0.00 | 39 | 1014.3 |
| 20260506191328 | 64 | 180 | 16.0 | 28.0 | 0.00 | 0.00 | 0.00 | 41 | 1014.4 |
| 20260506190819 | 64 | 158 | 19.0 | 28.0 | 0.00 | 0.00 | 0.00 | 40 | 1014.3 |
| 20260506190315 | 63 | 201 | 17.0 | 26.0 | 0.00 | 0.00 | 0.00 | 39 | 1014.5 |
| 20260506185826 | 63 | 192 | 18.0 | 28.0 | 0.00 | 0.00 | 0.00 | 39 | 1014.6 |
| 20260506185338 | 63 | 159 | 15.0 | 30.0 | 0.00 | 0.00 | 0.00 | 42 | 1014.6 |
| 20260506184829 | 62 | 176 | 16.0 | 34.0 | 0.00 | 0.00 | 0.00 | 40 | 1014.6 |
| 20260506184320 | 62 | 206 | 18.0 | 34.0 | 0.00 | 0.00 | 0.00 | 40 | 1014.7 |
| 20260506183813 | 62 | 155 | 19.0 | 29.0 | 0.00 | 0.00 | 0.00 | 40 | 1014.4 |
| 20260506183326 | 62 | 191 | 12.0 | 30.0 | 0.00 | 0.00 | 0.00 | 43 | 1014.7 |
| 20260506182817 | 61 | 153 | 18.0 | 30.0 | 0.00 | 0.00 | 0.00 | 41 | 1014.7 |
| 20260506182330 | 61 | 126 | 16.0 | 29.0 | 0.00 | 0.00 | 0.00 | 41 | 1014.7 |
| 20260506181821 | 61 | 186 | 14.0 | 32.0 | 0.00 | 0.00 | 0.00 | 43 | 1014.8 |
| 20260506181317 | 61 | 175 | 17.0 | 33.0 | 0.00 | 0.00 | 0.00 | 41 | 1014.7 |
| 20260506180830 | 61 | 218 | 17.0 | 31.0 | 0.00 | 0.00 | 0.00 | 42 | 1014.7 |
| 20260506180319 | 60 | 176 | 19.0 | 27.0 | 0.00 | 0.00 | 0.00 | 42 | 1014.6 |
| 20260506175850 | 60 | 174 | 19.0 | 37.0 | 0.00 | 0.00 | 0.00 | 42 | 1014.9 |
| 20260506175322 | 60 | 149 | 20.0 | 37.0 | 0.00 | 0.00 | 0.00 | 42 | 1014.8 |
| 20260506174814 | 60 | 143 | 17.0 | 28.0 | 0.00 | 0.00 | 0.00 | 42 | 1014.8 |
| 20260506174346 | 60 | 149 | 17.0 | 28.0 | 0.00 | 0.00 | 0.00 | 43 | 1014.8 |
| 20260506173815 | 59 | 146 | 16.0 | 26.0 | 0.00 | 0.00 | 0.00 | 44 | 1014.7 |
| 20260506173327 | 59 | 161 | 18.0 | 28.0 | 0.00 | 0.00 | 0.00 | 43 | 1014.8 |
| 20260506172818 | 59 | 165 | 15.0 | 32.0 | 0.00 | 0.00 | 0.00 | 45 | 1014.8 |
| 20260506172350 | 59 | 209 | 18.0 | 32.0 | 0.00 | 0.00 | 0.00 | 44 | 1014.7 |
| 20260506171826 | 59 | 198 | 16.0 | 32.0 | 0.00 | 0.00 | 0.00 | 45 | 1014.9 |
| 20260506171316 | 58 | 200 | 15.0 | 32.0 | 0.00 | 0.00 | 0.00 | 46 | 1015.0 |
| 20260506170828 | 58 | 149 | 19.0 | 27.0 | 0.00 | 0.00 | 0.00 | 45 | 1014.9 |
| 20260506170341 | 58 | 155 | 17.0 | 30.0 | 0.00 | 0.00 | 0.00 | 46 | 1015.0 |